sat.trackr.live / text

‹ back to catalog

STARLINK-4092

NORAD 52838 · 2022-062J

PAYLOAD ACTIVE UNKNOWN

§ Identity

Operator
Country
US
Launch date
2022-06-17
Launch site
AFETR
Launch vehicle
Mass (kg)
RCS (m²)

Purposes: comms

External: N2YO · Heavens-Above · Gunter

§ Orbital elements

Epoch: 2026-05-25T01:24:28.617984Z

Period
95.44 min
Inclination
53.2142°
Eccentricity
0.0001409
Mean motion
15.08845527 rev/d
Perigee alt
538.8 km
Apogee alt
540.7 km
Semi-major
6,917.9 km
B*
9.9243e-6
RAAN
51.2757°
Arg perigee
74.8323°
Mean anomaly
285.2825°
Rev number
21,731

§ Raw data

STARLINK-40921 52838U 22062J   26145.05866456 -.00000130  00000+0  99243-5 0  99922 52838  53.2142  51.2757 0001409  74.8323 285.2825 15.08845527217314

JSON: /api/v1/satellites/52838 · /tle

For live sub-satellite position, see the globe view (requires WebGL).

§ Visibility from observer

Set your observer location to see the next 7 days of passes ≥ 10°. The values pass through the URL so the page stays shareable.

No JS? Fill the form by hand. The geolocation button needs JavaScript.